Wind_Speed
39 38 37 36 35 34 32 31 30 30 30 29 27 26 24 23 22 21 21 22 22 22 22 22 21 21 21 21 21 22 22 22 21 20 20 19 19 19 20 22 24 25 26 28 29 29 30 31 31 31 32 34 36 38 39 40 42 43 45 47 49 51 52 54 54 53 52 50 48 46 45 43 41 39 38 37 36 35 33 31 30 29 26 24 23
39 39 38 37 36 35 33 32 32 33 32 31 29 28 26 25 24 23 23 24 24 24 24 24 23 23 23 23 23 23 23 23 23 23 22 21 21 21 21 22 24 26 28 29 30 31 31 32 32 33 34 36 38 39 40 42 44 46 48 50 51 53 54 53 52 51 49 47 44 42 41 41 40 39 37 37 36 35 34 32 31 29 27 25 23
39 40 40 39 38 37 35 35 35 35 34 32 31 30 29 28 27 26 26 27 27 26 25 25 24 24 24 25 25 24 24 24 24 24 24 24 23 23 23 23 24 26 28 30 31 31 32 32 34 35 36 38 39 41 42 44 46 48 50 52 53 53 52 50 48 47 46 45 43 42 40 40 40 39 38 36 36 35 33 33 31 29 27 25 23
39 41 41 40 39 39 38 37 38 37 36 34 32 32 31 30 29 28 29 29 28 28 27 26 26 26 26 26 26 26 25 25 25 25 25 25 25 25 25 26 26 27 29 31 31 32 32 34 35 37 38 40 41 43 45 47 49 50 51 52 51 49 47 45 44 44 43 43 43 42 41 40 39 39 38 37 36 35 34 32 31 29 27 25 22
40 41 42 42 41 41 40 40 40 39 37 35 34 34 33 32 32 31 31 30 30 29 28 27 27 27 27 26 26 26 26 26 26 26 26 26 26 26 27 27 28 29 30 31 32 33 34 36 37 38 39 41 43 46 48 49 51 51 50 49 46 44 43 42 42 42 42 42 41 41 41 40 40 39 39 38 37 36 35 33 30 29 27 24 21
41 42 42 43 43 42 42 42 41 40 39 38 37 37 36 35 34 33 32 31 30 29 28 28 27 27 27 27 26 26 26 26 26 26 27 27 27 27 28 28 29 30 31 32 33 35 36 38 39 40 41 43 46 48 50 51 51 49 47 44 42 40 40 40 41 41 41 41 40 39 39 39 39 39 39 39 39 38 37 34 30 29 27 23 20
43 43 43 43 43 43 42 41 42 42 40 40 39 39 38 37 36 35 34 32 31 29 28 27 27 27 26 26 26 25 25 25 26 26 26 27 28 29 29 30 30 31 32 33 35 36 38 39 41 43 45 46 48 49 49 49 48 45 43 42 41 39 39 39 39 40 40 40 39 39 39 38 38 37 37 39 40 39 37 34 29 27 26 23 19
45 44 44 44 44 43 41 40 40 41 42 42 42 41 40 38 37 36 35 33 30 28 27 27 26 26 26 26 25 25 24 25 25 25 26 27 28 29 31 32 32 33 34 35 37 38 40 41 43 45 47 48 49 48 46 43 41 40 40 40 40 40 39 39 39 39 39 39 39 39 39 38 38 37 37 38 38 38 36 33 28 25 24 22 18
47 46 45 45 44 43 42 41 40 40 42 43 42 41 40 38 37 36 34 32 29 27 26 26 26 26 26 25 25 24 24 24 25 25 26 27 29 30 32 33 34 35 35 36 38 41 43 45 47 48 48 48 46 44 41 38 37 37 37 37 38 38 39 39 39 38 39 39 39 39 39 39 38 38 38 37 36 36 34 31 27 22 21 21 18
46 47 46 45 44 44 44 43 42 41 41 42 41 40 39 38 37 35 33 30 28 27 26 26 25 26 26 26 26 26 26 26 26 26 28 29 30 31 33 34 36 37 37 39 41 44 46 48 49 48 47 45 42 39 36 35 35 35 35 35 36 36 37 38 38 37 38 39 40 40 41 41 40 40 40 38 36 35 33 30 27 22 20 20 19
44 45 46 45 45 45 45 45 44 42 41 40 40 39 38 37 36 34 32 30 28 27 27 26 26 26 27 27 28 28 28 27 28 28 29 30 31 32 34 35 37 38 40 42 45 47 48 49 48 46 43 39 36 35 34 33 33 33 33 33 34 34 36 37 37 37 38 40 40 40 40 41 41 40 40 37 35 33 32 29 26 23 20 20 21
41 43 44 45 45 45 45 45 45 43 41 40 39 38 38 37 36 34 32 30 29 29 28 26 26 27 28 29 29 29 29 29 29 30 31 32 33 34 35 37 39 41 43 45 47 48 48 47 44 41 37 35 33 31 31 30 31 31 31 32 33 34 34 35 35 35 37 39 40 40 39 39 39 39 37 35 32 30 30 28 25 23 22 22 23
38 40 42 44 45 45 44 45 45 44 42 41 39 38 38 38 37 34 32 30 30 30 29 28 28 29 30 31 31 30 30 30 30 31 32 33 35 36 37 39 41 43 45 47 47 47 45 42 39 36 34 32 30 29 29 29 29 30 31 33 34 35 35 34 33 34 36 38 40 41 40 38 38 37 35 32 29 27 27 27 24 23 23 23 25
36 38 40 42 43 44 44 44 45 44 43 42 40 40 39 39 37 35 33 32 32 32 31 31 31 31 31 32 32 31 31 30 31 32 33 35 36 38 39 42 44 45 46 46 45 43 39 37 35 33 32 30 29 29 29 30 31 32 33 35 37 38 36 35 34 36 37 38 38 39 40 38 36 36 35 32 29 26 26 27 26 25 27 28 29
35 35 37 39 41 42 43 44 44 44 44 43 42 41 40 39 38 36 35 34 34 33 33 34 34 33 34 34 34 32 31 32 32 33 34 36 38 40 42 44 46 46 45 43 40 37 35 34 33 31 30 29 29 29 30 33 35 36 37 39 41 41 40 37 37 39 39 39 38 38 40 40 37 35 34 32 29 25 24 25 26 28 32 34 34
36 35 35 36 38 40 41 43 44 44 44 44 43 42 41 40 39 38 37 36 36 36 36 36 36 36 36 36 35 33 33 33 34 34 35 37 40 43 45 46 46 44 41 38 35 34 32 31 30 30 31 30 30 31 32 35 38 39 40 42 43 44 43 41 42 43 42 41 39 37 37 38 38 36 35 32 30 26 23 23 23 27 34 39 42
38 35 34 34 35 36 38 40 42 43 44 45 44 43 42 41 40 40 39 39 39 38 37 37 37 38 38 38 36 34 35 35 35 36 37 39 41 44 45 45 44 40 37 34 33 32 30 30 30 31 32 32 32 33 34 36 38 40 42 43 45 46 46 45 45 46 45 44 41 37 34 34 34 35 35 32 29 25 23 22 22 27 36 42 46
39 37 35 33 33 33 35 37 39 42 44 45 44 44 43 42 42 42 42 41 41 40 39 39 39 40 40 39 37 36 37 37 37 38 39 41 43 44 43 41 38 35 34 33 32 32 31 31 32 33 34 35 35 35 36 37 39 41 42 44 46 48 47 47 47 48 46 43 38 34 32 32 31 32 33 33 31 28 25 24 26 33 41 46 49
40 39 37 35 33 33 33 35 37 40 42 44 44 44 44 44 43 43 44 44 43 42 41 41 41 41 40 39 39 38 38 38 39 40 41 42 43 41 38 35 32 30 30 31 31 32 32 32 33 34 35 36 37 37 37 38 40 42 43 45 46 48 48 48 48 47 44 39 34 30 29 28 28 27 27 28 29 29 29 30 33 38 45 50 53
42 40 39 37 36 35 35 35 36 38 40 42 44 45 45 45 45 45 45 44 43 42 42 42 42 41 40 40 40 40 40 40 41 42 43 42 40 37 34 31 29 28 29 30 32 32 32 32 33 34 35 36 37 38 39 40 42 43 45 46 47 48 49 49 48 45 39 31 27 26 26 26 27 27 28 31 32 32 32 33 36 42 50 57 59
44 43 42 41 39 38 38 37 37 38 39 40 42 43 44 45 44 44 44 44 44 44 43 43 42 42 42 42 42 41 41 42 43 43 42 39 36 33 31 29 28 29 31 32 33 33 32 33 34 34 35 37 38 40 41 43 44 45 47 48 48 50 50 49 48 42 32 26 28 34 40 44 45 46 49 52 53 52 48 42 41 49 59 64 64
47 45 45 44 43 42 41 40 40 40 40 41 41 43 43 44 44 44 44 44 44 44 44 43 43 43 43 43 42 43 43 43 43 42 38 35 33 31 29 29 29 31 33 33 34 33 33 35 36 37 38 39 40 42 43 44 45 46 47 48 49 51 50 48 46 39 29 29 39 47 54 60 60 59 61 64 64 62 58 52 51 58 65 66 65
50 49 48 47 46 45 44 43 43 43 42 42 42 43 43 44 44 44 44 44 45 45 45 45 44 44 43 44 44 44 44 43 41 38 35 33 31 29 29 30 31 32 34 35 35 34 35 37 39 40 41 41 43 44 45 46 47 47 48 49 50 50 49 46 42 34 27 29 39 48 55 61 62 60 62 65 65 63 60 57 57 61 65 67 66
54 52 51 50 49 48 47 46 45 45 45 44 44 44 44 45 45 45 45 46 46 46 46 45 44 44 44 45 45 44 43 40 37 35 34 32 30 30 31 32 32 33 35 36 36 36 37 39 41 42 43 43 44 46 47 48 49 49 50 50 50 50 48 43 37 30 24 25 34 47 55 59 60 59 59 61 63 63 62 62 62 62 63 65 65
56 55 53 52 51 50 49 48 48 47 47 46 46 46 46 47 47 46 46 47 46 46 45 45 45 45 45 45 45 42 39 36 35 34 33 31 31 32 33 33 34 35 36 38 39 39 40 42 43 44 44 45 46 47 48 50 50 51 51 51 50 49 47 43 36 29 26 28 35 44 51 55 59 60 60 60 61 61 61 61 61 62 64 65 64
57 56 55 54 53 52 51 50 50 49 48 48 48 48 48 48 47 46 46 46 46 46 46 46 46 46 45 44 41 37 35 35 34 33 33 33 33 34 34 35 36 37 38 40 40 41 42 44 45 45 46 46 47 48 49 50 51 52 52 52 51 50 48 45 40 36 36 37 41 46 51 57 60 61 60 60 59 60 62 61 59 59 62 64 62
56 55 55 54 53 53 52 51 50 49 49 48 48 48 47 47 46 46 47 47 48 48 48 47 46 45 42 39 36 34 34 35 34 34 34 35 35 36 37 38 39 39 40 41 42 43 44 45 45 46 47 47 48 49 49 50 52 53 54 54 53 52 51 48 46 45 45 46 48 52 55 58 59 60 61 60 60 61 63 63 60 59 61 62 60
52 53 53 53 53 52 52 51 50 49 49 49 48 48 47 47 47 48 49 49 49 49 48 46 45 42 39 36 34 35 35 35 35 36 37 37 38 39 39 40 41 41 42 42 43 44 45 46 47 47 48 48 49 50 50 51 52 53 54 55 55 55 55 53 51 50 49 50 52 55 57 59 59 61 62 62 62 63 65 64 61 60 63 66 63
47 50 51 52 52 52 52 51 51 50 50 50 50 50 49 49 50 50 50 50 49 48 46 44 42 39 38 36 36 36 36 36 37 38 39 40 41 42 42 43 43 43 43 44 44 45 46 47 48 49 50 50 51 51 52 53 54 55 56 56 56 57 56 54 51 50 51 53 55 57 59 60 59 60 61 60 60 63 65 64 63 62 63 66 67
41 43 46 47 49 50 51 51 51 51 51 51 51 51 50 50 50 50 49 48 46 44 42 40 39 38 38 38 37 37 38 38 40 41 42 43 44 44 45 45 45 45 45 46 46 47 48 49 50 51 52 52 53 54 54 55 56 57 58 58 59 58 54 51 50 52 54 56 57 59 61 60 59 60 61 60 60 61 61 61 62 63 63 64 66
36 37 39 41 43 45 46 47 48 49 49 49 49 48 48 47 47 46 45 43 42 40 39 38 38 39 39 39 40 40 41 41 42 43 44 45 46 46 47 47 47 47 48 48 49 50 50 51 52 54 54 54 55 56 57 58 58 59 59 59 60 58 53 51 53 56 56 56 57 60 62 61 61 61 61 60 61 62 59 57 58 60 62 63 65
35 35 36 37 38 39 40 41 42 43 44 44 44 44 44 43 43 42 41 39 38 38 38 39 39 40 41 42 42 43 43 44 45 46 47 47 47 48 48 49 49 50 50 51 52 52 52 53 55 56 56 57 58 59 60 60 60 61 61 60 61 59 54 54 57 59 58 58 59 61 63 62 62 62 62 61 61 61 59 56 53 54 58 61 62
37 37 37 37 37 37 37 38 39 40 40 40 41 41 41 41 40 39 39 38 38 39 40 40 41 42 43 44 44 45 46 47 47 48 48 49 49 50 50 51 51 52 53 53 54 54 54 56 57 58 59 60 60 61 62 62 62 63 63 62 62 59 55 56 59 59 58 58 59 61 63 62 60 61 62 60 57 56 55 53 51 50 53 55 57
42 41 40 40 39 39 39 39 39 40 40 40 40 40 40 40 40 40 40 40 41 42 42 43 43 44 45 46 47 47 48 49 49 50 50 51 51 52 53 54 54 55 56 56 56 57 57 58 60 61 62 63 63 64 65 65 65 66 66 65 64 60 55 57 60 60 57 57 58 60 62 60 58 60 60 56 52 50 49 48 45 45 47 50 51
47 46 45 44 43 43 42 41 41 42 42 42 42 42 42 42 42 43 43 44 45 45 46 46 46 47 48 49 49 50 51 51 52 52 53 53 54 55 56 57 58 59 59 59 59 60 61 62 63 64 65 65 66 67 67 67 68 68 68 67 65 58 55 58 62 61 57 56 57 60 61 57 55 56 55 51 48 46 44 43 41 40 43 46 48
52 51 49 48 47 46 45 45 45 45 44 44 44 44 45 45 46 47 48 48 49 49 49 50 50 50 51 52 52 52 53 54 54 55 56 57 58 59 60 61 62 63 62 62 62 63 64 65 65 66 67 68 69 69 69 69 69 69 69 67 62 56 55 60 64 63 60 57 55 56 58 54 51 51 50 45 43 42 42 42 41 39 40 42 43
55 54 53 51 50 49 48 48 48 48 48 48 48 49 49 50 50 51 52 53 53 53 53 53 53 54 54 54 55 55 56 57 58 59 60 61 62 63 64 65 66 66 66 65 65 66 67 67 68 69 70 70 71 71 71 70 68 68 68 64 59 56 58 64 67 67 64 58 50 49 53 51 47 44 42 38 36 37 40 41 41 39 39 40 41
56 56 55 54 53 53 52 52 51 52 52 53 53 53 54 54 55 55 56 56 56 56 56 56 57 57 57 58 59 59 60 61 62 63 64 65 66 67 68 69 69 70 69 69 69 69 70 70 70 71 72 73 73 73 72 70 67 66 65 62 60 60 63 68 71 71 69 61 50 47 51 49 43 39 37 33 30 31 34 36 36 36 39 41 41
58 57 56 55 55 55 56 56 55 55 56 56 57 57 57 58 58 58 59 59 59 59 59 59 59 60 61 62 63 63 64 65 66 67 68 69 69 70 71 72 73 73 73 72 72 73 73 73 73 74 74 75 75 74 73 70 67 65 63 62 62 64 68 72 73 73 72 65 53 50 52 49 39 34 33 30 26 25 27 29 30 32 36 38 37
60 59 58 58 58 58 59 59 59 59 59 59 60 60 61 61 61 62 62 61 61 62 62 62 63 64 65 66 66 68 68 69 70 71 71 72 73 74 75 75 76 76 76 76 76 76 75 75 76 76 77 77 77 76 75 72 69 67 66 65 66 69 72 74 75 75 73 64 51 47 51 50 40 32 30 29 26 23 22 23 26 29 31 32 29
64 63 62 62 61 61 62 62 62 63 63 64 64 64 65 65 65 65 65 65 65 65 66 67 68 69 69 70 71 72 73 73 74 74 75 76 76 77 77 78 79 79 79 79 79 79 78 78 79 79 79 80 79 78 76 74 72 70 70 70 72 74 76 77 78 78 74 63 48 41 44 45 42 36 32 29 28 25 21 21 24 26 28 27 25
66 66 66 66 66 65 66 66 66 67 67 68 68 69 69 69 69 69 69 69 69 70 71 72 73 74 75 76 76 77 77 78 78 78 78 79 79 80 80 81 82 82 82 82 81 81 80 80 81 82 82 81 80 79 78 76 74 73 73 74 76 78 80 80 80 79 76 66 52 41 38 39 41 40 37 34 32 30 25 21 22 24 26 27 27
69 69 69 69 69 69 70 70 71 71 72 72 72 73 73 73 73 73 73 73 74 75 75 76 77 78 79 79 80 80 81 81 81 81 82 82 82 83 83 84 84 84 84 84 84 83 83 83 84 84 83 82 81 81 80 79 77 76 76 77 79 81 82 82 81 80 77 69 56 42 36 37 39 40 41 41 40 38 33 28 25 25 27 30 31
70 71 71 72 72 73 74 74 75 75 75 76 76 76 76 76 76 77 77 78 78 79 79 80 80 81 81 82 83 83 84 84 84 84 84 85 85 86 87 87 87 87 87 86 86 86 86 86 86 85 84 84 84 84 83 82 80 80 80 81 82 83 83 83 82 79 77 72 60 46 38 38 39 40 41 44 44 42 39 36 33 30 31 34 37
73 74 75 75 76 76 77 78 78 78 78 78 78 78 79 79 80 80 81 81 82 82 82 83 83 84 84 85 85 86 86 86 87 87 87 88 88 89 89 90 90 89 89 88 88 89 88 87 86 86 86 87 87 86 86 85 85 84 83 83 84 84 84 83 82 78 75 73 66 54 43 39 39 40 41 43 46 44 40 39 39 38 35 37 41
75 76 77 79 80 80 80 80 80 80 80 80 80 81 81 82 83 83 84 85 85 85 86 86 86 87 87 87 88 88 89 89 89 90 90 91 91 92 92 92 91 91 91 91 91 90 89 88 88 89 90 90 89 89 89 88 88 87 86 86 86 86 85 83 81 78 74 72 69 62 52 44 40 39 41 43 46 48 44 41 41 42 40 39 42
79 79 81 81 82 82 82 82 82 82 82 83 83 84 85 85 86 86 87 88 88 88 89 89 89 89 90 90 90 91 91 91 92 92 93 93 94 94 93 93 94 94 94 93 91 91 91 92 93 94 93 92 91 91 91 91 91 90 90 89 88 87 85 83 80 77 74 71 69 66 61 53 44 38 39 41 45 50 51 48 45 44 43 42 42
82 83 83 84 84 84 84 84 84 84 85 86 86 87 87 88 89 89 90 91 91 91 92 92 92 93 93 93 93 94 94 94 94 94 95 95 95 95 95 94 94 94 93 92 93 94 96 97 96 96 95 94 94 94 94 94 94 93 92 91 90 87 85 83 80 77 75 72 69 67 65 60 52 44 40 40 42 48 54 55 53 50 49 47 45
85 85 86 86 87 87 87 87 87 88 88 89 89 90 91 91 92 93 93 93 94 94 94 95 95 96 96 96 97 97 96 96 96 96 96 97 97 96 94 93 93 94 95 97 98 100 100 99 98 97 97 97 97 97 97 97 97 96 94 92 90 87 85 83 80 78 76 74 71 69 67 65 62 55 46 41 40 43 49 54 57 56 55 55 54
80 83 85 88 91 92 92 91 90 90 91 91 92 93 94 95 95 96 96 97 97 98 98 98 98 99 99 99 99 99 99 99 98 98 97 97 96 95 94 95 97 99 101 102 101 101 101 100 100 100 101 100 100 100 100 99 98 97 95 93 90 87 85 82 81 79 77 75 73 71 70 69 68 65 58 50 44 42 44 48 53 56 58 59 60
80 78 77 79 84 89 91 92 92 92 93 94 95 96 97 97 98 98 99 99 100 100 100 100 100 100 100 100 100 100 99 98 96 95 95 95 97 99 101 102 104 104 103 103 103 103 103 103 103 103 103 103 103 102 101 100 98 96 94 92 90 87 85 83 82 80 79 77 76 75 73 72 72 72 69 63 55 49 46 46 48 50 54 59 63
Wind_Direction
227 228 227 226 225 223 219 218 220 222 223 223 225 227 230 233 237 241 245 249 253 257 260 264 268 271 273 275 278 282 285 288 290 293 294 294 296 302 308 312 314 316 318 320 322 323 324 324 325 326 326 327 327 327 328 328 328 327 327 327 327 327 326 325 325 324 324 325 326 327 327 326 325 324 322 320 318 316 313 309 306 304 301 295 285
228 229 229 228 227 225 222 220 221 224 226 227 227 229 232 235 239 243 247 251 254 256 259 262 266 269 272 274 276 280 284 288 290 292 293 295 296 298 302 305 309 312 315 318 321 322 322 323 323 324 324 325 325 325 325 325 325 326 326 326 326 325 324 324 324 324 325 326 327 328 327 326 324 322 321 319 318 316 313 309 306 303 300 295 285
229 230 230 229 228 226 223 221 223 226 229 230 231 233 235 238 241 245 248 252 255 258 260 263 266 270 273 276 278 280 283 286 289 292 293 294 296 297 299 302 307 311 314 317 319 320 320 320 320 322 323 323 323 323 323 324 324 325 325 324 324 323 324 324 325 326 327 327 328 328 328 325 323 321 321 320 318 316 313 310 307 304 301 296 284
227 229 229 229 229 228 225 224 225 228 231 233 235 237 239 242 244 247 251 254 257 259 263 267 269 272 274 277 279 281 283 285 288 290 292 293 294 297 301 305 308 311 313 315 316 317 317 318 319 320 321 322 321 322 322 323 323 324 324 323 323 324 324 325 326 327 328 329 329 329 327 325 323 322 321 320 319 317 314 311 308 305 302 296 283
225 228 229 229 229 229 228 227 228 230 232 235 237 240 242 245 247 249 253 255 258 261 264 268 272 274 276 278 280 282 283 285 287 288 290 292 294 298 303 306 308 310 312 313 314 314 316 317 318 319 320 320 320 321 322 322 323 323 323 323 323 325 326 327 328 329 329 330 331 329 327 325 325 323 322 320 319 317 315 313 310 306 302 294 281
222 225 228 228 229 230 230 230 231 233 234 236 238 241 244 246 249 251 253 254 257 261 265 269 271 274 277 279 280 282 284 286 287 289 291 294 297 300 302 304 306 308 309 311 312 314 315 316 317 318 318 319 320 321 322 322 323 323 323 323 324 326 327 328 329 330 330 332 333 330 327 325 325 324 321 319 319 319 318 316 313 309 304 294 281
220 223 226 228 229 230 231 232 233 235 237 238 239 242 244 247 249 251 252 254 257 261 265 268 271 273 276 280 283 285 287 289 290 291 293 296 298 300 301 303 304 306 308 310 312 313 314 315 315 316 318 319 320 321 322 322 323 324 324 325 326 327 328 328 329 330 330 332 332 330 328 326 325 323 319 317 319 320 319 319 317 312 305 296 285
221 221 224 227 229 230 231 233 234 236 238 239 241 242 245 247 249 250 252 254 256 260 264 268 272 276 279 282 285 288 290 290 291 293 295 296 298 299 301 302 303 305 308 310 312 312 313 314 315 317 318 319 320 321 322 322 323 324 324 325 326 327 328 329 330 331 331 331 331 331 329 328 326 323 320 319 321 322 321 321 319 314 305 297 289
222 222 222 224 227 229 231 232 234 235 237 239 241 242 244 246 247 249 250 253 255 259 264 269 274 277 281 284 287 288 290 291 292 294 295 296 297 298 300 301 303 306 309 310 311 311 313 314 316 317 318 319 320 321 322 322 323 324 324 324 325 326 328 331 332 333 332 332 332 332 331 330 329 327 325 326 327 327 327 325 321 315 305 296 290
225 225 224 223 224 227 229 231 232 234 236 238 240 241 243 244 246 247 249 251 255 259 264 268 274 279 283 286 288 289 289 290 292 293 294 295 296 297 299 302 305 307 308 310 311 312 313 314 315 316 317 318 320 321 322 323 324 325 325 326 326 328 330 332 334 335 334 333 334 334 333 332 332 331 331 331 331 331 331 328 322 314 305 297 292
227 228 228 227 225 225 227 229 231 232 235 237 238 240 243 244 245 246 248 252 256 260 264 269 275 280 283 286 287 288 289 290 291 292 293 294 295 297 300 303 305 307 309 310 311 312 312 313 313 315 316 318 320 321 323 325 325 326 327 327 328 329 331 334 337 338 335 334 334 334 333 333 333 334 333 331 331 332 332 330 323 315 308 302 296
230 231 231 230 228 227 226 227 229 230 233 235 238 240 243 244 245 247 250 254 258 262 266 271 276 279 282 285 286 288 289 290 290 291 293 294 297 299 301 303 305 307 309 310 311 311 311 311 312 314 316 318 320 322 324 325 326 327 328 328 330 331 334 337 340 339 336 334 334 333 333 333 333 334 332 329 330 332 331 329 325 318 311 305 299
233 234 234 234 233 231 229 228 228 229 231 234 237 240 242 244 247 249 253 256 260 264 269 273 276 278 281 284 286 287 288 289 290 291 293 296 298 300 302 304 306 307 308 308 309 309 309 310 312 314 316 318 321 322 323 324 325 326 328 330 332 334 336 339 342 340 335 333 332 331 331 332 332 332 331 329 329 331 332 330 326 322 316 308 303
235 235 236 236 236 235 233 231 229 229 230 233 236 239 242 245 248 251 254 257 261 265 270 273 275 277 280 284 286 287 287 288 289 291 294 296 298 300 302 304 305 305 306 307 307 307 308 310 312 313 315 318 320 321 322 324 326 327 330 332 333 335 336 338 341 337 334 333 332 328 328 330 330 328 327 326 325 329 332 331 328 327 322 315 309
238 237 237 238 237 237 236 234 232 231 231 233 236 239 242 245 249 252 255 258 261 265 269 272 275 278 281 284 285 285 286 287 289 291 294 296 298 300 302 303 303 303 304 305 304 305 307 309 310 311 313 315 318 320 323 327 329 330 332 332 333 334 335 337 338 335 332 333 330 326 326 327 328 326 324 323 322 324 329 330 330 332 330 324 320
239 239 239 239 240 239 238 237 235 233 233 234 236 239 243 246 249 253 255 258 261 264 267 271 275 278 280 282 284 284 284 286 288 291 293 295 298 300 300 300 301 302 302 302 302 303 305 307 307 309 311 313 317 321 326 329 329 330 332 331 331 332 333 335 336 333 331 331 328 325 324 323 323 323 322 321 319 319 322 324 330 335 332 328 325
240 240 240 241 241 242 242 240 238 237 235 236 237 240 243 246 250 253 255 258 261 264 267 270 273 276 279 281 282 282 284 286 287 289 291 294 296 298 298 299 300 301 301 301 301 302 303 304 306 309 311 315 319 324 328 329 328 329 330 330 330 330 331 334 334 331 331 330 327 325 323 319 317 318 320 321 320 315 315 319 326 330 325 322 323
239 239 240 240 241 242 243 242 241 240 239 239 240 241 244 246 250 252 255 258 260 263 266 269 271 274 277 278 279 281 283 284 285 288 291 293 295 296 296 296 297 299 301 301 302 303 305 307 309 312 314 317 321 324 327 327 327 327 328 328 328 327 330 333 332 330 333 333 330 327 324 319 316 314 315 320 321 317 313 313 316 318 318 318 318
237 238 238 240 241 241 241 242 241 241 241 241 241 243 245 247 249 252 255 257 260 263 265 267 269 272 274 275 277 279 280 282 284 287 291 292 293 292 291 289 290 292 293 294 296 299 303 307 310 313 315 318 320 322 324 325 325 326 327 327 326 326 329 332 331 331 335 338 335 332 328 322 319 316 315 318 322 322 319 315 315 317 317 315 314
235 237 238 240 241 241 240 240 240 240 240 241 243 244 246 248 249 252 255 257 260 261 263 265 268 270 271 273 275 277 279 281 285 288 290 290 289 287 284 282 283 284 284 286 289 293 299 303 307 311 313 316 318 320 322 324 325 325 325 325 326 326 328 330 329 330 337 343 344 340 333 324 319 316 313 311 310 310 310 313 316 313 308 305 305
233 236 237 238 240 240 240 240 240 240 240 241 243 244 246 248 250 252 254 257 259 261 262 264 266 268 270 272 274 276 279 283 286 288 288 286 283 280 280 280 282 284 285 287 290 294 299 303 307 309 312 314 317 320 321 323 324 324 324 324 325 325 326 327 326 327 334 341 337 329 321 314 309 307 304 302 298 296 296 298 301 300 297 295 294
232 233 235 236 237 238 239 240 240 240 241 241 242 244 246 248 250 252 254 256 258 260 261 263 266 268 270 272 274 277 281 284 286 285 281 278 275 275 278 281 284 286 289 292 295 297 300 305 308 310 312 314 317 318 319 320 322 322 323 324 324 324 325 325 323 323 328 327 321 315 310 306 304 303 302 299 297 297 297 295 291 290 290 288 283
232 232 233 234 236 237 238 240 242 242 243 243 244 246 247 249 251 253 254 256 258 260 262 264 266 268 270 272 275 279 282 283 281 278 274 271 271 273 277 280 283 287 291 295 298 299 301 306 308 310 312 314 315 317 317 318 320 321 321 322 323 324 324 324 320 319 324 325 316 307 301 299 298 299 298 296 295 296 297 294 289 287 287 285 280
234 234 234 235 236 237 238 240 242 244 245 246 247 248 249 251 252 253 255 257 259 261 263 264 266 268 270 273 276 279 280 278 273 270 269 270 272 275 279 281 284 288 292 296 299 299 301 305 308 309 311 313 314 315 316 317 319 320 320 321 322 322 323 324 319 312 310 311 304 296 294 294 294 295 296 295 294 294 293 291 287 285 285 284 281
236 237 237 238 238 238 238 239 241 243 245 246 247 249 250 251 252 254 256 258 259 261 262 264 266 269 272 274 276 276 274 269 265 265 268 270 274 277 281 284 287 290 293 296 299 299 301 305 307 308 310 312 313 314 315 316 318 319 319 319 320 321 322 321 318 308 296 289 285 286 290 294 295 296 297 297 297 296 294 290 286 284 283 281 278
238 238 239 240 240 240 240 241 241 243 245 246 247 249 250 251 253 254 256 258 259 261 263 265 267 269 271 272 272 269 265 262 263 265 267 271 275 279 282 285 287 290 293 296 299 300 301 304 306 307 308 310 311 312 313 315 316 317 318 318 318 319 318 316 313 307 298 292 289 289 293 296 296 296 295 295 297 297 294 291 288 285 281 278 276
237 238 239 240 241 241 242 243 243 244 245 246 247 249 250 252 253 255 256 257 259 261 263 265 266 267 267 266 263 260 259 261 264 266 270 274 277 280 283 286 288 290 293 296 299 300 301 303 304 305 306 307 309 310 311 313 315 315 316 316 316 316 315 313 310 305 300 297 297 297 298 299 299 298 297 295 295 294 292 290 289 286 282 278 276
235 236 238 239 240 241 242 243 244 244 245 246 247 249 250 252 253 254 256 257 259 261 262 263 262 261 259 257 255 255 257 261 265 269 273 277 279 282 284 286 288 291 293 296 298 299 300 301 302 303 304 306 307 308 310 311 312 313 314 314 315 314 313 311 309 305 303 302 302 301 301 301 301 301 299 297 295 293 291 290 289 287 283 280 277
234 235 236 237 238 240 241 242 243 244 245 246 247 249 250 251 252 254 255 257 258 258 259 258 257 255 253 252 252 254 258 262 267 272 275 278 281 283 284 286 288 291 293 296 297 298 299 300 301 302 303 304 305 306 308 310 311 312 313 313 313 314 313 311 309 307 307 306 305 303 302 302 301 300 298 296 293 290 288 288 287 285 282 279 277
234 234 235 235 236 238 239 240 241 242 243 245 246 247 248 250 251 251 252 253 253 253 253 253 252 252 252 253 254 257 261 265 269 273 276 278 281 283 284 286 288 291 293 296 297 298 298 299 300 301 302 303 304 305 307 309 311 312 312 312 313 314 313 312 311 310 309 308 306 304 303 303 302 301 300 298 293 289 285 283 281 280 279 276 275
235 234 234 234 235 236 237 239 240 241 242 243 244 244 245 245 246 246 247 248 248 249 249 250 252 253 254 255 257 259 263 267 270 273 276 278 280 282 284 287 289 291 294 296 296 298 299 299 300 300 301 303 305 306 308 309 310 311 311 312 313 314 312 311 312 312 311 310 308 307 305 305 304 303 302 301 298 294 290 285 279 275 274 273 272
240 238 236 234 234 234 235 236 237 238 238 239 239 239 240 240 241 243 244 245 246 249 250 252 253 254 255 257 259 262 265 268 271 273 275 277 279 281 284 287 290 292 294 295 296 297 298 299 299 300 302 304 305 306 308 309 310 310 310 311 313 313 311 312 314 314 312 311 309 306 305 306 307 307 305 303 300 297 295 291 284 276 272 270 269
244 242 241 239 236 235 235 235 236 237 237 237 237 238 239 240 241 242 245 246 249 251 253 254 255 256 257 260 262 265 267 269 271 273 274 276 279 282 285 287 289 291 292 294 295 297 298 298 299 300 302 304 305 307 308 309 309 310 310 310 311 310 308 311 315 315 313 311 308 305 304 306 308 308 306 304 302 300 297 293 289 282 275 271 269
246 244 243 242 241 239 238 238 238 238 238 238 239 240 241 242 244 245 247 249 251 253 254 255 257 258 260 262 263 265 267 269 270 272 275 278 281 283 285 287 288 290 291 293 294 296 297 298 299 300 302 304 305 307 308 309 309 309 309 309 310 307 305 310 316 317 314 312 308 304 303 306 308 308 306 305 304 303 299 295 291 286 280 275 271
245 245 244 243 243 242 242 241 241 241 240 240 241 242 244 245 247 248 250 251 253 254 255 257 258 259 261 262 263 265 267 269 271 274 277 279 281 283 285 286 287 289 290 292 294 296 297 298 299 301 302 304 305 307 308 308 309 309 308 308 308 305 303 310 318 320 316 312 308 303 301 304 306 304 303 303 304 304 300 296 292 288 284 279 274
245 245 245 244 244 244 244 244 243 243 243 242 243 244 245 247 248 250 252 253 254 255 256 258 259 260 261 263 264 266 268 271 273 276 278 279 281 282 284 285 287 288 290 292 294 296 297 298 299 301 302 303 305 306 307 309 309 308 307 307 305 302 303 310 317 320 318 314 309 301 298 301 303 300 298 300 303 303 301 298 294 290 287 283 278
243 245 246 246 246 245 245 245 245 245 244 244 244 245 245 247 249 250 252 253 254 255 257 258 259 261 262 264 266 268 270 272 274 276 277 279 281 283 284 285 287 289 291 292 294 295 296 298 299 300 301 303 304 305 307 309 309 308 307 306 303 301 305 311 316 320 320 317 310 300 298 301 302 297 294 297 302 303 302 301 298 297 294 290 284
243 244 245 246 247 246 246 245 245 245 244 244 244 245 246 247 249 250 252 253 255 257 258 259 261 263 265 266 268 269 271 273 275 276 278 280 281 283 284 286 288 289 290 291 293 294 296 297 298 299 301 302 303 305 307 308 308 307 305 304 302 302 307 311 315 318 320 318 310 301 300 304 302 295 292 295 298 300 301 301 300 300 299 296 290
244 245 245 246 246 247 247 247 247 246 245 245 245 247 248 250 251 253 254 256 257 259 261 263 264 266 267 268 270 271 273 274 276 277 278 280 281 283 285 286 288 289 290 291 293 294 295 297 298 299 300 301 303 305 306 307 307 306 304 304 303 304 308 311 313 316 319 318 312 303 302 305 301 289 284 286 289 294 298 298 295 295 297 298 295
246 246 246 246 246 246 247 248 249 249 248 248 248 249 250 251 253 255 256 258 260 261 263 265 266 267 269 270 271 272 273 275 276 277 279 281 282 284 285 286 287 289 290 292 293 294 295 297 298 299 300 301 302 304 305 306 306 305 304 304 305 306 308 311 312 314 317 318 313 304 302 305 301 287 275 274 277 280 288 293 290 287 291 297 296
244 245 247 247 247 247 248 249 250 251 251 251 251 252 252 254 255 256 258 260 261 263 264 266 267 268 269 270 271 272 273 275 276 278 279 281 282 284 285 286 287 288 290 291 293 294 296 297 298 299 300 301 302 303 304 305 304 304 304 305 306 307 308 310 311 312 314 315 312 301 297 299 297 286 274 268 268 267 270 281 285 280 279 284 284
241 243 244 245 247 248 248 249 250 251 252 252 253 254 255 256 257 259 260 261 263 264 265 266 267 268 269 270 272 273 274 275 276 278 279 280 282 283 284 285 287 288 290 291 293 294 296 297 298 299 300 301 301 302 303 303 303 304 304 304 305 306 307 308 309 310 312 313 312 303 293 290 289 283 274 268 267 266 261 263 271 270 267 269 269
241 242 243 244 245 246 248 249 250 251 252 253 254 255 256 258 259 260 261 262 263 264 265 266 267 268 270 271 272 274 275 276 277 278 280 281 282 283 284 286 287 289 290 292 293 295 296 296 297 298 299 300 301 301 302 303 303 304 303 303 304 305 306 307 308 309 310 312 313 307 295 286 284 280 272 265 265 267 265 260 259 258 255 257 259
242 243 244 245 246 247 247 248 249 250 251 252 254 255 256 258 259 260 261 262 263 264 265 266 267 268 270 271 272 274 275 277 278 279 280 282 283 284 285 286 288 289 291 292 293 294 295 295 297 298 298 299 300 301 302 302 303 303 303 302 303 304 305 306 307 308 308 309 311 309 299 289 284 278 268 258 254 258 264 264 259 253 247 247 250
245 245 246 246 247 248 249 249 250 251 252 253 255 256 257 258 259 260 261 262 263 264 265 266 267 268 270 271 273 274 276 277 278 279 281 282 283 284 285 286 288 289 290 291 292 293 294 295 296 296 297 298 299 300 300 301 301 301 302 302 302 303 304 305 306 307 307 308 309 309 304 295 287 280 270 257 248 247 254 258 255 249 245 244 246
249 249 249 249 249 250 250 251 252 253 254 255 256 257 258 259 260 260 261 262 263 264 265 266 267 269 270 272 273 274 276 277 278 280 281 282 283 284 285 286 287 289 289 290 291 292 293 294 295 296 297 297 298 298 299 299 300 300 301 302 302 303 304 304 305 306 307 307 308 308 307 304 296 284 273 262 250 246 248 251 248 243 241 240 241
252 252 253 253 253 254 254 254 255 256 256 257 258 258 259 260 261 262 263 264 264 265 267 268 269 270 271 272 273 274 276 277 278 279 280 281 283 284 285 286 287 288 288 289 290 291 292 294 295 296 296 297 297 298 298 299 300 300 301 302 302 303 303 304 305 306 306 306 307 307 307 309 305 293 279 269 257 249 249 250 247 242 239 240 240
253 254 254 255 256 257 257 258 258 258 259 259 260 261 261 262 263 264 265 265 266 267 268 269 270 271 272 273 274 275 276 277 278 279 280 281 283 284 285 285 286 287 287 288 290 291 293 294 295 295 296 296 297 297 298 299 300 300 301 301 302 302 303 303 304 305 305 304 305 306 306 306 306 300 289 278 267 256 252 252 251 246 242 241 242
257 258 258 258 258 258 258 258 259 260 261 261 262 263 263 264 265 265 266 267 268 268 269 270 271 271 272 273 274 275 276 277 278 279 280 281 282 283 283 285 286 288 289 289 290 292 293 294 294 295 295 296 297 297 298 298 299 300 300 301 301 302 302 303 303 303 303 303 304 305 305 305 305 304 297 286 275 264 256 253 253 253 250 247 245
258 259 258 258 257 257 257 258 259 260 261 261 262 263 264 265 265 266 267 267 268 269 269 270 271 271 272 273 274 275 276 277 278 279 279 280 281 282 283 285 287 289 289 290 291 291 292 293 293 294 295 296 296 297 297 298 299 299 299 300 300 301 301 301 301 301 302 303 303 304 304 303 304 304 301 294 284 275 265 258 255 255 255 253 250
254 254 254 254 254 255 255 257 259 260 260 261 262 262 263 264 264 265 266 266 267 268 268 269 270 271 271 272 273 274 275 276 277 278 280 281 282 284 285 287 288 289 289 290 290 291 292 292 293 294 295 295 296 296 297 298 298 298 298 299 299 299 299 300 300 301 301 302 302 302 302 302 302 302 302 299 293 285 278 271 265 261 258 255 253
Height
10981 10983 10985 10988 10990 10992 10995 10997 10998 11000 11000 11002 11003 11003 11004 11004 11005 11005 11006 11006 11006 11006 11006 11006 11007 11007 11007 11007 11007 11006 11006 11005 11005 11006 11006 11006 11005 11005 11004 11002 11001 11000 10999 10998 10997 10996 10995 10994 10993 10991 10990 10988 10987 10985 10983 10981 10979 10977 10975 10973 10970 10967 10964 10961 10958 10956 10953 10950 10948 10945 10941 10938 10936 10934 10931 10929 10927 10925 10924 10922 10921 10920 10919 10918 10917
10979 10981 10983 10985 10988 10990 10993 10995 10996 10997 10998 11000 11001 11001 11002 11002 11003 11003 11003 11004 11004 11004 11004 11005 11005 11005 11004 11004 11005 11004 11004 11003 11003 11003 11003 11003 11003 11003 11002 11001 10999 10998 10997 10996 10995 10994 10993 10992 10991 10990 10988 10987 10985 10983 10981 10979 10977 10975 10972 10970 10967 10963 10960 10957 10954 10951 10948 10946 10944 10942 10939 10936 10933 10931 10929 10926 10924 10922 10920 10919 10917 10916 10916 10915 10914
10976 10978 10980 10982 10985 10988 10990 10992 10993 10994 10996 10998 10999 10999 10999 11000 11000 11001 11001 11001 11001 11001 11002 11002 11002 11002 11002 11002 11002 11002 11002 11001 11000 11000 11000 11000 11000 11000 11000 10999 10998 10997 10995 10994 10993 10992 10991 10989 10988 10987 10986 10984 10982 10981 10979 10977 10975 10972 10970 10967 10963 10960 10956 10953 10950 10947 10945 10942 10940 10938 10936 10933 10930 10928 10926 10924 10922 10919 10917 10915 10914 10913 10912 10911 10911
10973 10975 10976 10979 10982 10984 10987 10989 10990 10992 10994 10996 10996 10997 10997 10997 10998 10998 10998 10998 10998 10999 10999 10999 10999 11000 11000 11000 10999 10999 10999 10999 10998 10997 10997 10997 10997 10997 10997 10996 10996 10995 10993 10992 10991 10990 10989 10987 10986 10985 10983 10981 10979 10978 10976 10974 10972 10969 10966 10963 10960 10957 10953 10950 10948 10945 10942 10939 10936 10934 10932 10930 10927 10925 10923 10921 10919 10917 10914 10913 10911 10910 10909 10908 10907
10969 10971 10973 10975 10977 10980 10983 10985 10987 10989 10992 10993 10994 10994 10994 10995 10995 10996 10996 10996 10996 10996 10997 10997 10997 10997 10997 10997 10997 10997 10996 10996 10995 10995 10994 10994 10994 10994 10994 10993 10993 10992 10991 10990 10989 10987 10986 10985 10984 10982 10981 10979 10976 10974 10972 10970 10968 10966 10963 10959 10956 10954 10951 10948 10945 10943 10940 10938 10935 10932 10928 10926 10924 10922 10920 10917 10916 10914 10911 10910 10908 10907 10906 10905 10904
10964 10966 10968 10970 10973 10976 10979 10982 10984 10987 10989 10991 10991 10991 10991 10992 10993 10993 10993 10993 10993 10994 10994 10994 10994 10994 10994 10994 10994 10994 10994 10993 10993 10992 10992 10991 10991 10991 10991 10991 10990 10989 10988 10987 10986 10985 10983 10982 10980 10979 10978 10976 10974 10972 10969 10965 10963 10961 10958 10956 10954 10952 10949 10946 10943 10940 10938 10936 10934 10931 10927 10924 10921 10919 10916 10914 10912 10910 10908 10906 10905 10904 10903 10902 10902
10959 10961 10963 10966 10969 10971 10975 10978 10981 10984 10986 10987 10988 10987 10988 10989 10990 10990 10990 10990 10991 10991 10991 10991 10992 10991 10991 10991 10991 10991 10991 10991 10990 10990 10990 10989 10989 10988 10988 10987 10987 10986 10985 10984 10983 10982 10981 10979 10978 10976 10974 10973 10971 10969 10966 10963 10959 10956 10953 10951 10950 10949 10947 10945 10942 10939 10936 10934 10932 10930 10927 10924 10920 10917 10914 10911 10909 10907 10905 10903 10902 10901 10900 10899 10900
10955 10957 10959 10961 10964 10967 10971 10975 10978 10980 10982 10983 10983 10984 10985 10986 10987 10987 10987 10988 10989 10989 10989 10989 10989 10988 10988 10988 10988 10988 10988 10988 10988 10988 10987 10987 10986 10985 10984 10984 10984 10983 10983 10981 10980 10978 10977 10976 10974 10973 10971 10969 10967 10965 10963 10961 10958 10955 10951 10948 10946 10944 10943 10942 10941 10938 10935 10932 10930 10928 10926 10923 10920 10917 10914 10911 10909 10906 10904 10902 10901 10900 10898 10897 10898
10950 10952 10954 10956 10959 10963 10967 10970 10973 10976 10977 10978 10979 10980 10981 10982 10983 10984 10984 10985 10986 10986 10986 10986 10986 10986 10985 10985 10985 10986 10985 10985 10985 10985 10985 10984 10983 10982 10981 10980 10980 10980 10979 10978 10976 10974 10973 10971 10970 10969 10967 10965 10964 10962 10960 10958 10955 10953 10950 10947 10945 10942 10940 10939 10938 10935 10932 10930 10928 10926 10923 10921 10919 10915 10912 10910 10908 10904 10902 10901 10899 10898 10897 10896 10896
10947 10948 10950 10952 10955 10959 10962 10965 10968 10971 10972 10974 10975 10977 10978 10979 10980 10981 10982 10983 10983 10984 10984 10984 10984 10983 10983 10983 10983 10983 10983 10983 10983 10982 10982 10981 10980 10980 10978 10977 10976 10976 10975 10974 10973 10971 10969 10967 10966 10964 10963 10962 10960 10959 10957 10955 10952 10950 10948 10946 10943 10941 10939 10937 10935 10933 10930 10927 10924 10922 10919 10917 10915 10912 10910 10907 10905 10903 10901 10899 10897 10896 10896 10895 10895
10943 10945 10947 10949 10952 10954 10957 10960 10964 10966 10969 10971 10972 10973 10974 10975 10976 10978 10979 10979 10980 10981 10981 10982 10982 10981 10981 10980 10980 10980 10980 10979 10979 10979 10978 10978 10977 10977 10976 10974 10973 10972 10971 10969 10968 10966 10965 10963 10962 10961 10960 10958 10957 10955 10953 10951 10949 10947 10946 10944 10941 10939 10938 10936 10934 10931 10927 10924 10921 10919 10916 10913 10911 10909 10907 10904 10903 10901 10899 10897 10896 10895 10895 10894 10893
10940 10942 10944 10947 10949 10951 10953 10956 10959 10962 10965 10967 10969 10970 10971 10972 10973 10974 10976 10977 10977 10978 10978 10979 10979 10979 10978 10977 10977 10977 10977 10977 10976 10976 10975 10974 10973 10973 10972 10971 10970 10968 10967 10965 10964 10962 10960 10959 10958 10957 10956 10955 10954 10953 10951 10949 10947 10945 10943 10941 10939 10937 10936 10935 10932 10929 10925 10921 10918 10915 10913 10911 10908 10907 10904 10902 10900 10899 10897 10896 10895 10894 10893 10893 10892
10938 10940 10942 10944 10946 10948 10950 10953 10955 10958 10961 10964 10966 10967 10968 10968 10969 10971 10973 10974 10974 10974 10975 10976 10976 10976 10975 10974 10974 10974 10974 10974 10973 10972 10972 10970 10970 10969 10968 10968 10966 10965 10963 10962 10960 10958 10956 10955 10954 10953 10952 10952 10951 10949 10948 10946 10944 10942 10940 10938 10936 10935 10934 10932 10930 10927 10923 10920 10916 10912 10910 10908 10906 10904 10902 10900 10898 10897 10896 10895 10894 10893 10892 10891 10891
10935 10937 10939 10941 10943 10945 10947 10949 10952 10955 10958 10961 10962 10963 10964 10965 10966 10968 10969 10970 10970 10970 10971 10971 10971 10972 10971 10971 10971 10971 10971 10971 10970 10969 10969 10967 10966 10965 10964 10963 10962 10961 10960 10958 10956 10954 10953 10951 10950 10949 10949 10948 10947 10945 10944 10942 10940 10939 10937 10935 10933 10931 10930 10929 10927 10924 10921 10918 10915 10911 10907 10906 10904 10901 10899 10898 10896 10896 10895 10894 10893 10893 10892 10891 10890
10932 10934 10936 10938 10940 10942 10944 10946 10949 10951 10954 10957 10958 10959 10960 10961 10962 10964 10965 10966 10966 10967 10967 10966 10966 10967 10968 10967 10967 10968 10968 10967 10967 10966 10966 10964 10962 10961 10960 10959 10958 10957 10956 10954 10952 10951 10950 10948 10947 10946 10945 10945 10944 10942 10940 10938 10936 10934 10933 10931 10929 10927 10926 10925 10924 10921 10918 10916 10913 10909 10905 10902 10900 10898 10896 10896 10895 10894 10894 10893 10892 10892 10890 10889 10888
10928 10931 10933 10935 10937 10938 10941 10943 10945 10948 10950 10952 10954 10955 10956 10958 10959 10960 10961 10961 10962 10963 10963 10962 10962 10963 10963 10963 10963 10964 10964 10964 10963 10963 10963 10961 10959 10957 10955 10954 10953 10952 10952 10950 10948 10947 10947 10946 10944 10943 10942 10941 10940 10939 10937 10935 10932 10930 10929 10926 10924 10923 10922 10920 10919 10917 10914 10912 10910 10907 10904 10899 10896 10894 10893 10893 10892 10892 10892 10890 10890 10890 10888 10886 10885
10925 10927 10929 10931 10933 10935 10937 10940 10942 10944 10946 10948 10950 10951 10953 10954 10955 10956 10957 10957 10957 10958 10958 10959 10959 10958 10958 10958 10959 10960 10960 10960 10960 10960 10959 10958 10956 10954 10951 10949 10947 10947 10946 10945 10944 10944 10943 10943 10941 10939 10938 10936 10936 10935 10934 10932 10929 10927 10926 10923 10921 10919 10917 10916 10915 10912 10909 10908 10905 10903 10901 10897 10894 10892 10890 10889 10889 10889 10889 10888 10887 10887 10885 10882 10880
10920 10923 10925 10927 10929 10931 10934 10936 10938 10940 10942 10944 10946 10947 10949 10950 10951 10952 10952 10952 10953 10954 10954 10955 10955 10954 10954 10954 10955 10956 10956 10956 10956 10955 10955 10954 10953 10951 10948 10946 10944 10943 10942 10940 10939 10939 10939 10938 10937 10935 10934 10932 10931 10930 10930 10928 10926 10924 10923 10921 10918 10916 10914 10913 10911 10907 10905 10903 10900 10898 10896 10893 10892 10890 10888 10886 10886 10886 10886 10885 10884 10883 10880 10878 10875
10915 10918 10921 10923 10926 10928 10930 10932 10934 10936 10938 10939 10941 10943 10944 10946 10947 10947 10947 10948 10948 10949 10950 10950 10950 10950 10950 10950 10950 10951 10951 10951 10951 10951 10951 10950 10949 10947 10946 10944 10944 10943 10941 10939 10938 10936 10936 10935 10934 10932 10930 10929 10928 10926 10926 10925 10923 10921 10920 10919 10916 10913 10911 10909 10907 10904 10902 10899 10896 10894 10892 10889 10888 10887 10885 10884 10883 10883 10883 10882 10881 10879 10876 10872 10868
10911 10914 10917 10919 10921 10923 10925 10927 10929 10931 10933 10935 10936 10938 10939 10941 10942 10942 10942 10943 10944 10944 10945 10945 10945 10945 10945 10946 10946 10946 10947 10947 10947 10947 10946 10945 10944 10943 10942 10942 10941 10941 10939 10937 10936 10935 10934 10932 10931 10930 10928 10926 10924 10923 10921 10921 10920 10918 10916 10915 10913 10911 10908 10906 10904 10901 10900 10897 10892 10890 10888 10886 10885 10884 10882 10882 10881 10879 10879 10879 10879 10878 10874 10868 10863
10906 10908 10911 10913 10915 10917 10919 10921 10923 10925 10927 10929 10931 10932 10933 10935 10936 10937 10937 10938 10938 10939 10939 10940 10940 10940 10941 10941 10941 10942 10942 10943 10942 10941 10940 10939 10939 10938 10938 10937 10937 10936 10934 10933 10932 10931 10930 10929 10928 10927 10925 10923 10921 10919 10917 10916 10915 10914 10912 10910 10909 10907 10905 10903 10900 10898 10898 10895 10891 10888 10886 10883 10880 10878 10875 10872 10871 10871 10873 10876 10877 10875 10871 10864 10858
10900 10902 10904 10906 10909 10911 10913 10915 10917 10920 10922 10924 10925 10926 10927 10929 10930 10931 10932 10932 10932 10933 10934 10935 10935 10936 10936 10936 10937 10937 10938 10938 10937 10936 10935 10935 10934 10934 10934 10933 10932 10931 10929 10928 10927 10927 10926 10924 10923 10922 10920 10919 10917 10915 10914 10912 10911 10910 10908 10906 10904 10902 10901 10900 10897 10895 10896 10896 10893 10891 10886 10878 10873 10870 10865 10859 10858 10860 10864 10869 10868 10861 10854 10849 10844
10893 10895 10897 10900 10902 10905 10908 10910 10912 10914 10916 10918 10920 10921 10922 10923 10924 10925 10926 10926 10927 10927 10928 10929 10930 10931 10931 10931 10932 10932 10933 10933 10931 10930 10929 10930 10930 10930 10929 10929 10928 10926 10924 10923 10923 10922 10921 10920 10918 10917 10915 10914 10913 10911 10909 10908 10906 10905 10903 10901 10899 10897 10896 10895 10893 10892 10894 10897 10897 10894 10885 10874 10867 10865 10859 10853 10851 10852 10854 10855 10851 10846 10841 10837 10835
10886 10889 10891 10894 10896 10899 10902 10904 10906 10908 10910 10912 10914 10915 10916 10917 10918 10919 10920 10920 10921 10922 10923 10924 10925 10925 10926 10927 10927 10928 10928 10927 10925 10924 10924 10924 10925 10925 10924 10924 10923 10922 10920 10919 10918 10918 10917 10915 10914 10912 10911 10910 10908 10906 10904 10902 10900 10899 10897 10895 10893 10891 10890 10890 10889 10888 10890 10894 10894 10886 10875 10865 10860 10858 10855 10849 10846 10845 10845 10842 10839 10837 10835 10831 10829
10879 10882 10885 10888 10891 10893 10896 10898 10901 10902 10904 10906 10908 10909 10910 10911 10912 10913 10914 10914 10915 10916 10917 10918 10919 10920 10920 10921 10922 10922 10921 10920 10919 10919 10919 10920 10920 10919 10919 10918 10918 10917 10916 10914 10914 10913 10912 10911 10909 10907 10906 10904 10903 10901 10899 10897 10895 10893 10891 10889 10888 10886 10884 10883 10884 10883 10882 10883 10881 10873 10864 10857 10853 10850 10847 10844 10839 10836 10833 10831 10831 10830 10827 10823 10822
10873 10876 10879 10882 10884 10887 10889 10892 10894 10896 10898 10900 10901 10902 10903 10905 10906 10907 10908 10908 10909 10910 10911 10912 10913 10914 10914 10915 10916 10916 10914 10913 10913 10914 10914 10914 10914 10914 10914 10913 10913 10913 10911 10910 10909 10908 10907 10905 10904 10903 10901 10899 10898 10896 10894 10892 10890 10888 10886 10884 10882 10880 10878 10877 10877 10876 10873 10871 10868 10864 10859 10852 10846 10843 10840 10837 10833 10828 10821 10819 10820 10820 10816 10813 10815
10867 10870 10873 10875 10878 10880 10882 10885 10888 10890 10891 10893 10894 10895 10896 10898 10900 10900 10901 10901 10903 10904 10905 10907 10908 10908 10909 10909 10910 10909 10908 10907 10908 10908 10908 10909 10909 10908 10908 10908 10907 10907 10906 10905 10904 10903 10901 10900 10899 10898 10896 10895 10893 10892 10890 10888 10885 10882 10880 10877 10875 10873 10871 10870 10869 10867 10865 10862 10858 10855 10851 10846 10840 10835 10830 10826 10824 10819 10812 10808 10809 10808 10804 10802 10806
10860 10863 10866 10869 10871 10873 10876 10878 10880 10882 10884 10885 10887 10888 10890 10892 10893 10893 10894 10895 10897 10898 10899 10901 10901 10902 10903 10904 10904 10903 10902 10902 10902 10902 10902 10903 10903 10902 10902 10902 10901 10901 10900 10900 10899 10898 10896 10895 10894 10892 10891 10889 10888 10886 10885 10883 10880 10878 10875 10872 10869 10866 10864 10862 10860 10858 10855 10853 10849 10845 10841 10837 10833 10827 10821 10817 10814 10808 10801 10799 10800 10798 10792 10790 10794
10854 10857 10860 10862 10864 10866 10869 10871 10873 10875 10876 10878 10880 10882 10884 10885 10886 10886 10888 10889 10891 10892 10893 10894 10895 10896 10896 10897 10898 10898 10898 10898 10897 10897 10897 10897 10896 10896 10896 10895 10895 10895 10894 10894 10893 10892 10891 10889 10888 10886 10885 10884 10882 10880 10879 10877 10875 10872 10869 10866 10863 10860 10857 10854 10851 10849 10846 10843 10840 10835 10831 10828 10825 10820 10814 10810 10805 10799 10793 10791 10790 10787 10783 10781 10782
10849 10851 10854 10856 10858 10859 10861 10863 10865 10867 10869 10871 10873 10875 10877 10878 10879 10880 10882 10884 10885 10886 10887 10888 10889 10889 10890 10891 10892 10892 10892 10892 10892 10891 10891 10890 10890 10889 10889 10889 10889 10889 10888 10888 10887 10886 10884 10883 10882 10880 10879 10877 10876 10874 10872 10870 10868 10865 10862 10858 10855 10853 10850 10846 10843 10841 10838 10834 10830 10826 10821 10818 10815 10810 10805 10800 10795 10790 10786 10783 10781 10778 10775 10773 10773
10844 10846 10848 10850 10852 10853 10855 10857 10859 10861 10862 10864 10867 10869 10870 10872 10873 10874 10876 10878 10879 10880 10881 10882 10883 10883 10884 10885 10885 10886 10886 10886 10886 10885 10884 10884 10883 10883 10882 10882 10882 10882 10882 10881 10880 10879 10878 10876 10875 10873 10872 10871 10869 10867 10866 10864 10862 10859 10856 10852 10847 10844 10842 10839 10835 10832 10829 10825 10821 10817 10811 10807 10803 10799 10794 10790 10785 10779 10776 10774 10772 10770 10766 10764 10763
10839 10841 10843 10845 10847 10848 10850 10851 10853 10854 10856 10858 10860 10862 10864 10865 10867 10869 10870 10872 10873 10874 10875 10876 10876 10877 10878 10878 10879 10879 10880 10879 10879 10878 10878 10878 10877 10877 10876 10876 10876 10876 10875 10874 10873 10872 10871 10869 10867 10866 10865 10864 10862 10861 10859 10857 10855 10852 10849 10846 10841 10837 10834 10832 10828 10824 10820 10816 10813 10808 10802 10798 10794 10789 10784 10780 10775 10770 10767 10764 10762 10760 10757 10756 10755
10834 10836 10838 10840 10841 10843 10845 10846 10848 10849 10851 10853 10854 10856 10858 10859 10861 10863 10864 10866 10867 10867 10868 10869 10870 10871 10871 10872 10872 10873 10872 10872 10872 10871 10871 10871 10871 10871 10870 10870 10869 10869 10868 10867 10866 10865 10864 10862 10860 10859 10858 10856 10855 10853 10851 10849 10847 10844 10840 10838 10835 10831 10828 10825 10822 10818 10813 10809 10804 10799 10794 10790 10786 10781 10775 10771 10767 10763 10759 10756 10754 10751 10749 10749 10748
10829 10830 10832 10834 10835 10837 10839 10841 10843 10844 10846 10848 10849 10851 10852 10854 10855 10857 10858 10859 10860 10861 10862 10863 10864 10865 10865 10865 10865 10865 10865 10864 10864 10864 10864 10864 10864 10864 10863 10863 10862 10861 10861 10860 10859 10858 10856 10855 10853 10852 10851 10849 10847 10846 10843 10841 10839 10836 10832 10830 10827 10824 10821 10818 10815 10812 10807 10802 10797 10791 10786 10782 10778 10772 10767 10763 10759 10756 10753 10751 10749 10747 10743 10742 10743
10822 10824 10826 10827 10829 10832 10834 10836 10837 10839 10840 10842 10844 10845 10847 10848 10849 10850 10851 10852 10853 10854 10855 10856 10857 10858 10858 10858 10858 10857 10857 10857 10857 10857 10857 10857 10857 10856 10856 10855 10854 10853 10853 10852 10852 10850 10849 10847 10845 10844 10842 10840 10839 10837 10835 10833 10830 10827 10824 10821 10818 10815 10813 10810 10807 10804 10800 10795 10790 10784 10779 10775 10771 10765 10760 10756 10753 10751 10748 10746 10745 10743 10739 10737 10737
10815 10817 10820 10822 10824 10827 10829 10830 10832 10834 10835 10836 10838 10840 10841 10842 10843 10843 10844 10845 10846 10847 10848 10849 10850 10850 10850 10850 10850 10850 10850 10850 10849 10849 10849 10849 10849 10848 10847 10846 10845 10845 10845 10845 10844 10842 10840 10839 10837 10836 10834 10832 10830 10829 10827 10825 10822 10818 10815 10812 10809 10807 10804 10801 10798 10796 10793 10788 10783 10777 10772 10769 10764 10758 10754 10751 10749 10746 10744 10742 10740 10738 10736 10733 10731
10809 10811 10814 10817 10819 10822 10824 10825 10826 10828 10829 10830 10832 10833 10834 10835 10835 10835 10836 10837 10838 10839 10840 10841 10841 10842 10842 10843 10843 10843 10842 10842 10842 10841 10841 10841 10840 10840 10839 10837 10837 10836 10836 10836 10835 10833 10832 10831 10829 10828 10825 10823 10822 10820 10819 10817 10814 10810 10806 10802 10800 10797 10795 10792 10789 10787 10785 10782 10777 10771 10766 10762 10757 10752 10748 10747 10745 10743 10740 10737 10734 10732 10730 10728 10726
10803 10806 10809 10811 10813 10815 10817 10818 10820 10821 10822 10823 10824 10825 10826 10826 10827 10827 10828 10829 10830 10831 10832 10832 10833 10834 10834 10834 10834 10834 10834 10833 10833 10833 10832 10832 10832 10831 10830 10829 10828 10828 10827 10826 10826 10825 10823 10822 10821 10819 10817 10815 10813 10812 10810 10808 10805 10801 10797 10794 10791 10788 10786 10783 10779 10777 10775 10773 10770 10765 10759 10755 10750 10746 10743 10742 10741 10738 10735 10732 10730 10728 10725 10722 10720
10796 10799 10803 10805 10807 10808 10809 10810 10811 10812 10814 10815 10815 10816 10817 10818 10818 10819 10820 10821 10822 10823 10824 10824 10825 10825 10825 10824 10824 10825 10825 10825 10824 10824 10824 10823 10823 10822 10821 10820 10819 10818 10817 10816 10816 10815 10814 10813 10811 10810 10808 10806 10804 10802 10800 10799 10796 10792 10789 10786 10783 10780 10777 10774 10770 10768 10766 10763 10759 10755 10751 10746 10743 10740 10737 10736 10735 10733 10729 10727 10726 10724 10721 10718 10715
10789 10792 10795 10797 10799 10800 10801 10801 10802 10803 10805 10806 10807 10808 10808 10809 10810 10811 10812 10813 10814 10815 10815 10816 10816 10816 10816 10815 10815 10815 10815 10815 10815 10815 10815 10814 10813 10812 10811 10810 10808 10808 10807 10806 10805 10804 10804 10803 10801 10799 10798 10796 10794 10792 10791 10789 10786 10783 10780 10777 10774 10771 10768 10765 10762 10760 10759 10758 10754 10747 10742 10738 10735 10733 10732 10730 10729 10726 10724 10722 10720 10718 10716 10714 10712
10783 10784 10786 10788 10790 10791 10792 10793 10794 10794 10795 10796 10797 10798 10799 10800 10802 10803 10804 10805 10807 10807 10807 10807 10807 10806 10806 10806 10805 10805 10806 10806 10806 10806 10805 10804 10803 10802 10801 10800 10798 10798 10797 10795 10794 10794 10793 10792 10790 10789 10787 10786 10784 10782 10780 10779 10776 10774 10771 10768 10765 10762 10759 10756 10753 10751 10751 10752 10750 10744 10737 10733 10729 10727 10725 10724 10722 10720 10719 10717 10715 10714 10712 10710 10710
10774 10776 10777 10779 10780 10782 10783 10784 10785 10786 10786 10787 10788 10789 10790 10792 10793 10794 10796 10797 10798 10799 10798 10798 10797 10796 10796 10795 10795 10795 10795 10796 10796 10796 10795 10795 10794 10792 10791 10790 10789 10788 10786 10785 10784 10783 10783 10782 10780 10778 10777 10775 10773 10771 10770 10768 10766 10764 10761 10758 10755 10752 10749 10747 10744 10741 10740 10741 10741 10738 10733 10728 10724 10721 10719 10718 10716 10714 10713 10712 10711 10710 10708 10707 10706
10765 10766 10768 10769 10771 10772 10773 10774 10775 10776 10777 10778 10779 10780 10782 10783 10785 10786 10787 10788 10788 10789 10789 10788 10787 10787 10786 10785 10784 10784 10784 10784 10784 10784 10784 10784 10783 10781 10780 10778 10777 10776 10775 10774 10773 10772 10771 10770 10769 10768 10766 10764 10762 10760 10758 10757 10756 10754 10751 10748 10745 10742 10739 10737 10734 10731 10728 10728 10730 10728 10725 10721 10718 10715 10712 10711 10709 10707 10706 10706 10705 10705 10704 10702 10701
10755 10756 10758 10759 10760 10762 10763 10764 10765 10766 10767 10769 10771 10772 10773 10775 10776 10777 10778 10778 10778 10778 10778 10778 10778 10777 10776 10775 10774 10773 10773 10773 10773 10772 10772 10772 10771 10769 10768 10766 10765 10764 10764 10763 10762 10761 10760 10759 10758 10757 10755 10753 10751 10749 10747 10746 10745 10743 10741 10738 10735 10733 10730 10727 10724 10721 10718 10717 10718 10718 10715 10712 10709 10706 10703 10702 10701 10700 10700 10699 10699 10699 10698 10696 10695
10745 10746 10747 10748 10749 10751 10752 10754 10755 10756 10758 10761 10762 10764 10765 10766 10766 10767 10767 10767 10767 10767 10767 10767 10767 10766 10766 10765 10764 10763 10763 10762 10762 10761 10761 10760 10759 10758 10756 10755 10754 10754 10753 10752 10751 10750 10749 10748 10747 10746 10744 10742 10740 10738 10736 10735 10734 10733 10731 10728 10725 10723 10720 10717 10714 10712 10708 10706 10705 10706 10705 10702 10699 10696 10694 10692 10692 10692 10692 10692 10691 10690 10690 10688 10687
10735 10736 10737 10737 10738 10740 10742 10744 10746 10748 10750 10752 10753 10753 10754 10754 10754 10754 10755 10755 10756 10756 10756 10756 10756 10756 10756 10755 10754 10753 10752 10752 10751 10750 10750 10749 10748 10747 10745 10745 10744 10743 10742 10741 10740 10738 10737 10736 10735 10734 10733 10731 10729 10727 10726 10724 10722 10721 10720 10717 10714 10711 10709 10706 10704 10702 10699 10696 10694 10693 10692 10692 10690 10687 10685 10684 10683 10683 10683 10683 10683 10682 10681 10679 10679
10725 10726 10726 10727 10728 10731 10733 10735 10737 10738 10739 10740 10741 10741 10741 10741 10742 10742 10743 10743 10744 10744 10744 10744 10745 10745 10744 10744 10743 10743 10742 10741 10740 10740 10739 10737 10736 10735 10734 10734 10733 10731 10730 10729 10729 10727 10726 10724 10723 10722 10721 10719 10718 10716 10714 10712 10710 10708 10707 10705 10703 10700 10697 10694 10693 10691 10689 10686 10683 10681 10680 10680 10680 10679 10677 10676 10675 10674 10674 10674 10674 10673 10672 10671 10669
10714 10716 10718 10719 10720 10721 10723 10724 10725 10726 10727 10728 10728 10729 10729 10730 10730 10730 10730 10731 10731 10731 10731 10731 10731 10731 10731 10731 10731 10730 10730 10729 10729 10728 10727 10725 10724 10723 10723 10722 10720 10719 10718 10717 10716 10715 10713 10712 10711 10709 10708 10706 10705 10703 10701 10699 10697 10695 10693 10691 10690 10687 10685 10682 10681 10679 10678 10676 10674 10672 10669 10669 10670 10670 10669 10668 10667 10666 10665 10664 10664 10664 10663 10662 10660
10704 10706 10708 10709 10710 10710 10711 10712 10713 10714 10715 10716 10716 10717 10717 10717 10717 10718 10718 10718 10718 10718 10718 10718 10718 10717 10717 10717 10717 10716 10716 10716 10716 10715 10715 10713 10711 10711 10711 10709 10708 10707 10706 10705 10703 10702 10700 10698 10697 10696 10695 10693 10692 10690 10689 10687 10684 10682 10679 10678 10676 10674 10673 10671 10669 10667 10666 10664 10663 10662 10659 10658 10657 10658 10658 10658 10658 10657 10656 10655 10655 10654 10653 10653 10652
10694 10694 10695 10695 10696 10697 10699 10701 10702 10703 10704 10704 10704 10705 10705 10704 10704 10705 10705 10705 10705 10705 10704 10704 10704 10704 10704 10704 10703 10703 10703 10703 10703 10703 10702 10701 10699 10698 10698 10697 10696 10694 10693 10691 10690 10688 10686 10684 10683 10682 10681 10680 10678 10677 10675 10673 10671 10668 10666 10664 10663 10661 10660 10659 10658 10656 10654 10653 10651 10650 10649 10647 10646 10646 10647 10648 10648 10647 10647 10646 10646 10645 10644 10643 10642
10682 10682 10681 10681 10682 10684 10686 10688 10690 10691 10692 10692 10692 10692 10692 10691 10691 10691 10691 10691 10691 10691 10691 10691 10691 10691 10691 10691 10691 10691 10691 10691 10690 10690 10689 10688 10687 10686 10685 10684 10683 10681 10679 10678 10677 10675 10673 10671 10669 10668 10667 10665 10664 10662 10661 10659 10657 10655 10653 10652 10650 10649 10647 10646 10645 10643 10642 10641 10639 10638 10638 10637 10636 10634 10634 10634 10635 10635 10635 10634 10634 10634 10633 10632 10631